OK2AF-5 Weather Reports


Display with metric or nautical units.
time (UTC)temp
F
wind
direction
speed
MPH
gust
MPH
rain 1hr
in
rain 24hr
in
rain mn
in
humidity
%
barometer
mb
20260507011133 0 0 1.0 5.0 0.00 0.01 0.00 1006.8
20260507010238 0 315 2.0 4.0 0.00 0.01 0.00 1006.8
20260507005345 0 0 2.0 3.0 0.00 0.01 0.00 1006.6
20260507004451 0 0 3.0 6.0 0.00 0.01 0.00 1006.6
20260507003556 0 315 3.0 6.0 0.00 0.01 0.00 1006.4
20260507002701 0 0 6.0 7.0 0.00 0.01 0.00 1006.3
20260507001804 0 0 3.0 5.0 0.00 0.01 0.00 1006.0
20260507000905 0 0 2.0 5.0 0.00 0.01 0.00 1005.9
20260507000011 0 0 3.0 4.0 0.00 0.01 0.00 1005.8
20260506235118 0 0 4.0 4.0 0.00 0.01 0.00 1005.7
20260506234224 0 0 2.0 6.0 0.00 0.01 0.00 1005.6
20260506233330 0 45 4.0 7.0 0.00 0.01 0.00 1005.5
20260506232435 0 0 7.0 7.0 0.00 0.01 0.00 1005.5
20260506231542 0 0 2.0 11.0 0.00 0.01 0.00 1005.6
20260506230645 0 0 3.0 11.0 0.00 0.01 0.00 1005.6
20260506225747 0 0 4.0 7.0 0.00 0.01 0.00 1005.5
20260506224852 0 0 3.0 9.0 0.00 0.01 0.00 1005.3
20260506223957 0 0 4.0 12.0 0.00 0.01 0.00 1005.3
20260506223102 0 0 4.0 14.0 0.00 0.01 0.00 1005.3
20260506222209 0 0 8.0 17.0 0.00 0.01 0.00 1005.3
20260506221315 0 0 8.0 15.0 0.00 0.01 0.00 1004.8
20260506220422 0 45 7.0 7.0 0.00 0.01 0.00 1004.4
20260506215526 0 270 0.0 2.0 0.00 0.01 0.01 1004.4
20260506214630 0 270 1.0 1.0 0.00 0.01 0.01 1004.2
20260506213735 0 270 0.0 1.0 0.00 0.01 0.01 1004.1
20260506212842 0 270 0.0 2.0 0.00 0.01 0.01 1004.0
20260506211948 0 270 2.0 3.0 0.00 0.01 0.01 1004.0
20260506211052 0 315 2.0 2.0 0.00 0.01 0.01 1004.1
20260506210159 0 315 0.0 0.0 0.00 0.01 0.01 1004.0
20260506205300 0 315 1.0 1.0 0.00 0.01 0.01 1004.0
20260506204404 0 315 0.0 1.0 0.00 0.01 0.01 1004.0
20260506203509 0 315 0.0 3.0 0.00 0.01 0.01 1003.9
20260506202614 0 315 0.0 3.0 0.00 0.01 0.01 1003.9
20260506201721 0 0 0.0 0.0 0.00 0.01 0.01 1004.0
20260506200824 0 0 0.0 1.0 0.00 0.01 0.01 1004.0
20260506195931 0 0 1.0 1.0 0.00 0.01 0.01 1004.1
20260506195036 0 0 0.0 3.0 0.00 0.01 0.01 1004.0
20260506194138 0 0 3.0 3.0 0.00 0.01 0.01 1003.9
20260506193237 0 0 0.0 4.0 0.00 0.01 0.01 1003.8
20260506192330 0 0 4.0 6.0 0.00 0.01 0.01 1003.8
20260506191429 0 0 5.0 7.0 0.00 0.01 0.01 1003.6
20260506190524 0 0 3.0 8.0 0.00 0.01 0.01 1003.4
20260506185610 0 0 4.0 7.0 0.00 0.01 0.01 1003.3
20260506184707 0 45 2.0 2.0 0.00 0.01 0.01 1002.7
20260506183805 0 90 2.0 3.0 0.00 0.01 0.01 1002.4
20260506182905 0 90 2.0 4.0 0.00 0.01 0.01 1002.2
20260506182003 0 180 2.0 9.0 0.00 0.01 0.01 1001.9
20260506181102 0 180 5.0 10.0 0.00 0.01 0.01 1001.9
20260506180201 0 225 4.0 11.0 0.00 0.01 0.01 1001.8
20260506175259 0 180 5.0 16.0 0.00 0.01 0.01 1001.6
20260506174358 0 180 11.0 13.0 0.00 0.01 0.01 1001.4
20260506173458 0 180 6.0 15.0 0.00 0.01 0.01 1001.5
20260506172559 0 180 5.0 17.0 0.00 0.01 0.01 1001.4
20260506171659 0 180 12.0 18.0 0.00 0.01 0.01 1001.4
20260506170758 0 180 9.0 24.0 0.00 0.01 0.01 1001.3
20260506165857 0 180 13.0 21.0 0.00 0.01 0.01 1001.2
20260506164956 0 180 8.0 19.0 0.00 0.01 0.01 1001.2
20260506164054 0 180 10.0 18.0 0.00 0.01 0.01 1001.4
20260506163153 0 225 11.0 18.0 0.00 0.01 0.01 1001.6
20260506162247 0 135 8.0 22.0 0.00 0.01 0.01 1001.5
20260506161346 0 180 11.0 20.0 0.00 0.01 0.01 1001.5
20260506160442 0 180 8.0 21.0 0.00 0.01 0.01 1001.8
20260506155542 0 180 14.0 18.0 0.00 0.01 0.01 1001.7
20260506154642 0 225 14.0 23.0 0.00 0.01 0.01 1001.9
20260506153741 0 225 7.0 21.0 0.00 0.01 0.01 1002.1
20260506152841 0 270 10.0 18.0 0.00 0.01 0.01 1002.0
20260506151939 0 225 5.0 21.0 0.00 0.01 0.01 1002.0
20260506151037 0 270 12.0 28.0 0.00 0.01 0.01 1002.2
20260506150136 0 180 12.0 23.0 0.00 0.01 0.01 1002.3
20260506145236 0 180 8.0 19.0 0.00 0.01 0.01 1002.3
20260506144336 0 135 7.0 19.0 0.00 0.01 0.01 1002.7
20260506143435 0 158 6.0 14.0 0.00 0.01 0.01 1002.7
20260506142531 0 180 6.0 17.0 0.00 0.01 0.01 1002.9
20260506141631 0 180 7.0 21.0 0.00 0.01 0.01 1003.0
20260506140730 0 180 12.0 22.0 0.00 0.01 0.01 1003.0
20260506135828 0 225 5.0 21.0 0.00 0.01 0.01 1003.0
20260506134927 0 180 17.0 20.0 0.00 0.01 0.01 1002.9
20260506134027 0 180 8.0 20.0 0.00 0.01 0.01 1002.9
20260506133122 0 203 13.0 19.0 0.00 0.01 0.01 1003.3
20260506132221 0 180 12.0 20.0 0.00 0.01 0.01 1003.3
20260506131320 0 180 1.0 9.0 0.00 0.01 0.01 1003.4
20260506130419 0 270 3.0 9.0 0.00 0.01 0.01 1003.6
20260506125518 0 225 2.0 11.0 0.00 0.01 0.01 1004.0
20260506124616 0 180 6.0 10.0 0.00 0.01 0.01 1004.1
20260506123720 0 180 4.0 15.0 0.00 0.01 0.01 1004.2
20260506122825 0 180 9.0 18.0 0.00 0.01 0.01 1004.2
20260506121930 0 180 6.0 14.0 0.00 0.01 0.01 1004.0
20260506121035 0 225 9.0 16.0 0.00 0.01 0.01 1004.1
20260506120139 0 225 3.0 13.0 0.00 0.01 0.01 1004.2
20260506115242 0 315 1.0 11.0 0.00 0.01 0.01 1004.1
20260506114347 0 158 2.0 11.0 0.00 0.01 0.01 1004.3
20260506113453 0 180 3.0 11.0 0.00 0.01 0.01 1004.3
20260506112558 0 180 5.0 12.0 0.00 0.01 0.01 1004.4
20260506111702 0 225 2.0 13.0 0.00 0.01 0.01 1004.7
20260506110808 0 135 0.0 12.0 0.00 0.01 0.01 1004.5
20260506105917 0 270 5.0 14.0 0.00 0.01 0.01 1004.8
20260506105023 0 225 7.0 14.0 0.00 0.01 0.01 1004.7
20260506104128 0 225 2.0 13.0 0.00 0.01 0.01 1004.7
20260506103230 0 45 1.0 14.0 0.00 0.01 0.01 1004.9
20260506102333 0 180 10.0 14.0 0.00 0.01 0.01 1004.9
20260506101439 0 270 9.0 15.0 0.00 0.01 0.01 1005.3
20260506100540 0 180 3.0 7.0 0.00 0.01 0.01 1005.2
20260506095644 0 270 1.0 12.0 0.00 0.01 0.01 1005.4
20260506094749 0 248 6.0 10.0 0.00 0.01 0.01 1005.4
20260506093855 0 270 7.0 10.0 0.00 0.01 0.01 1005.4
20260506093000 0 270 3.0 12.0 0.00 0.01 0.01 1005.3
20260506092107 0 270 4.0 10.0 0.00 0.01 0.01 1005.4
20260506091213 0 225 2.0 13.0 0.00 0.01 0.01 1005.3
20260506090319 0 225 7.0 13.0 0.00 0.01 0.01 1005.4
20260506085426 0 158 8.0 9.0 0.00 0.01 0.01 1005.1
20260506084530 0 135 6.0 12.0 0.00 0.01 0.01 1005.6
20260506083636 0 0 9.0 13.0 0.00 0.01 0.01 1005.7
20260506082741 0 0 6.0 9.0 0.00 0.01 0.01 1005.8
20260506081844 0 315 8.0 11.0 0.00 0.01 0.01 1005.7
20260506080949 0 270 2.0 12.0 0.00 0.01 0.01 1005.9
20260506073407 0 0 11.0 14.0 0.00 0.01 0.01 1005.8
20260506072514 0 270 5.0 14.0 0.00 0.01 0.01 1005.9
20260506071621 0 0 5.0 13.0 0.00 0.01 0.01 1005.8
20260506070721 0 270 8.0 17.0 0.00 0.01 0.01 1006.1
20260506062252 0 0 8.0 15.0 0.00 0.01 0.01 1006.0
20260506061359 0 0 9.0 19.0 0.00 0.01 0.01 1005.9
20260506060506 0 270 6.0 20.0 0.00 0.01 0.01 1005.9
20260506051137 0 315 1.0 8.0 0.00 0.01 0.01 1005.9
20260506050245 0 90 0.0 3.0 0.00 0.01 0.01 1006.2
20260506044456 0 270 0.0 2.0 0.00 0.01 0.01 1006.4
20260506043558 0 0 1.0 1.0 0.00 0.01 0.01 1006.7
20260506042703 0 0 0.0 2.0 0.00 0.01 0.01 1006.5
20260506041807 0 0 2.0 3.0 0.00 0.01 0.01 1006.5
20260506040912 0 0 1.0 3.0 0.00 0.01 0.01 1006.6
20260506040019 0 0 0.0 0.0 0.00 0.01 0.01 1006.5
20260506035122 0 0 0.0 0.0 0.00 0.01 0.01 1006.4
20260506034228 0 0 0.0 0.0 0.00 0.01 0.01 1006.4
20260506033334 0 0 0.0 0.0 0.00 0.01 0.01 1006.2
20260506032440 0 0 0.0 0.0 0.00 0.01 0.01 1006.2
20260506031546 0 0 0.0 0.0 0.00 0.01 0.01 1006.3
20260506030648 0 0 0.0 3.0 0.00 0.01 0.01 1006.2
20260506025753 0 0 0.0 0.0 0.00 0.01 0.01 1006.3
20260506024857 0 0 0.0 1.0 0.00 0.01 0.01 1006.1
20260506024003 0 0 1.0 1.0 0.00 0.01 0.01 1006.0
20260506023108 0 0 0.0 1.0 0.00 0.01 0.01 1005.8
20260506022214 0 0 0.0 0.0 0.00 0.01 0.01 1005.7
20260506021319 0 0 0.0 0.0 0.00 0.01 0.01 1005.6
20260506020424 0 0 1.0 2.0 0.00 0.01 0.01 1005.5
20260506015528 0 0 0.0 3.0 0.01 0.01 0.01 1005.3
20260506014631 0 0 2.0 4.0 0.01 0.01 0.01 1005.2
20260506013736 0 0 2.0 3.0 0.01 0.01 0.01 1005.2
20260506012835 0 0 2.0 2.0 0.01 0.01 0.01 1005.2
20260506011941 0 0 1.0 4.0 0.01 0.01 0.01 1005.2